Regional Weather Roundup
Issued by NWS

Home | Current Version | Previous Version | Text Only | Print | Product List | Glossary On
Versions: 1 2 3 4 5 6 7 8 9 10 11 12 13 14 15 16 17 18 19 20 21 22 23 24 25 26 27 28
000
ASPQ40 PGUM 201110
RWRPQ
WEATHER ROUNDUP FOR THE MARIANAS AND MICRONESIA
NATIONAL WEATHER SERVICE TIYAN GU
900 PM CHST WED OCT 20 2021

GUZ001>004-201200-
MARIANA ISLANDS-

CITY           SKY/WX    TMP DP  RH WIND       PRES   REMARKS
GUAM AIRPORT   LGT RAIN  77  75  94 E9        29.95R
ANDERSEN AFB   MOCLDY    77  73  88 S3        29.95R
ROTA AIRPORT   NOT AVBL
TINIAN AP      NOT AVBL
SAIPAN AP      CLEAR     79  75  89 E7        29.92R

$$

PMZ161-201200-
REPUBLIC OF PALAU-

CITY           SKY/WX    TMP DP  RH WIND       PRES   REMARKS
KOROR AP       CLOUDY    77  73  88 S7        29.86S
KOROR WSO      NOT AVBL

$$

PMZ171>174-201200-
FEDERATED STATES OF MICRONESIA-

CITY           SKY/WX    TMP DP  RH WIND       PRES   REMARKS
YAP AIRPORT    CLOUDY    81  77  89 VRB6      29.86R
CHUUK AP       LGT RAIN  79  77  94 VRB3      29.88R
POHNPEI AP     NOT AVBL
POHNPEI WSO    CLOUDY    77  75  94 S2        29.92S
KOSRAE AP      NOT AVBL

$$

PMZ181-201200-
REPUBLIC OF THE MARSHALL ISLANDS-

CITY           SKY/WX    TMP DP  RH WIND       PRES   REMARKS
KWAJALEIN AP   CLEAR     84  73  70 S5        29.91S HX  91
MAJURO AP      NOT AVBL
MAJURO WSO     PTCLDY    82  73  74 VRB2      29.90S

$$




USA.gov is the U.S. government's official web portal to all federal, state and local government web resources and services.